Pine Bluff, AR

4:53 AM CST on December 14, 2017 (GMT -0600)
Grider

Weather History for KPBF - June, 2013

Change the Weather History Date:

Monday, June 3, 2013

  Actual Average Record
Temperature  
Mean Temperature 70 °F 76 °F  
Max Temperature 80 °F 87 °F 100 °F (1911)
Min Temperature 60 °F 66 °F 49 °F (1956)
Degree Days  
Heating Degree Days 0 0  
Month to date heating degree days 0 0  
Since 1 June heating degree days 0 0  
Since 1 July heating degree days 2957 2881  
Cooling Degree Days 5 11  
Month to date cooling degree days 23 33  
Year to date cooling degree days 290 340  
Since 1 June cooling degree days 23 33  
Growing Degree Days 20 (Base 50)    
Moisture  
Dew Point 60 °F    
Average Humidity 71    
Maximum Humidity 90    
Minimum Humidity 51    
Precipitation  
Precipitation 0.00 in 0.14 in 2.40 in (1917)
Month to date precipitation 0.87 0.42  
Year to date precipitation 28.31 23.62  
Snow  
Snow 0.00 in 0.00 in - ()
Month to date snowfall 0.0 0.0  
Since 1 June snowfall 0.0 0.0  
Since 1 July snowfall 2.1 3.1  
Snow Depth 0.00 in    
Sea Level Pressure  
Sea Level Pressure 29.98 in    
Wind  
Wind Speed 5 mph (NNE)    
Max Wind Speed 12 mph    
Max Gust Speed 16 mph    
Visibility 10 miles    
Events      
T = Trace of Precipitation, MM = Missing Value Source: NWS Daily Summary

Daily Weather History Graph

Daily Weather History Graph

Search for Another Location

Airport or City:

Trip Planner

Search our weather history database for the weather conditions in past years. The results will help you decide how hot, cold, wet, or windy it might be!

Date:

Astronomy

Jun. 03, 2013 Rise Set
Actual Time 5:56 AM CDT 8:15 PM CDT
Civil Twilight 5:27 AM CDT 8:44 PM CDT
Nautical Twilight 4:52 AM CDT 9:20 PM CDT
Astronomical Twilight 4:13 AM CDT 9:58 PM CDT
Moon 2:43 AM CDT (6/3) 3:56 PM CDT (6/3)
Length of Visible Light 15h 16m
Length of Day
14h 19m
Waning Crescent, 22% of the Moon is Illuminated
Jun 3
Waning Crescent
Jun 8
New
Jun 16
First Quarter
Jun 23
Full
Jun 29
Last Quarter

Hourly Weather History & Observations

Time (CDT) Temp. Heat Index Dew Point Humidity Pressure Visibility Wind Dir Wind Speed Gust Speed Precip Events Conditions
12:53 AM 68.0 °F - 60.1 °F 76% 29.97 in 10.0 mi NNE 12.7 mph - N/A   Clear
1:53 AM 64.9 °F - 60.1 °F 84% 29.97 in 10.0 mi NNE 6.9 mph - N/A   Scattered Clouds
2:53 AM 63.0 °F - 59.0 °F 87% 29.97 in 10.0 mi North 5.8 mph - N/A   Clear
3:53 AM 63.0 °F - 57.0 °F 81% 29.99 in 10.0 mi North 3.5 mph - N/A   Clear
4:53 AM 61.0 °F - 57.9 °F 90% 30.00 in 10.0 mi Calm Calm - N/A   Scattered Clouds
5:53 AM 60.1 °F - 57.9 °F 93% 30.02 in 10.0 mi Calm Calm - N/A   Mostly Cloudy
6:53 AM 62.1 °F - 57.9 °F 86% 30.03 in 10.0 mi North 6.9 mph - N/A   Clear
7:53 AM 64.0 °F - 59.0 °F 84% 30.04 in 10.0 mi North 8.1 mph - N/A   Clear
8:53 AM 66.9 °F - 60.1 °F 79% 30.04 in 10.0 mi Variable 6.9 mph - N/A   Clear
9:53 AM 70.0 °F - 62.1 °F 76% 30.02 in 10.0 mi North 6.9 mph - N/A   Clear
10:53 AM 72.0 °F - 61.0 °F 68% 30.02 in 10.0 mi North 4.6 mph - N/A   Partly Cloudy
11:53 AM 75.9 °F - 62.1 °F 62% 30.01 in 10.0 mi North 6.9 mph - N/A   Clear
12:53 PM 75.9 °F - 59.0 °F 56% 30.00 in 10.0 mi NNW 5.8 mph - N/A   Partly Cloudy
1:53 PM 78.1 °F - 59.0 °F 52% 29.98 in 10.0 mi North 8.1 mph 16.1 mph N/A   Partly Cloudy
2:53 PM 80.1 °F 81.1 °F 61.0 °F 52% 29.96 in 10.0 mi NNE 4.6 mph - N/A   Partly Cloudy
3:53 PM 79.0 °F - 60.1 °F 52% 29.95 in 10.0 mi East 4.6 mph - N/A   Mostly Cloudy
4:53 PM 80.1 °F 80.9 °F 60.1 °F 50% 29.94 in 10.0 mi Variable 3.5 mph - N/A   Partly Cloudy
5:53 PM 78.1 °F - 61.0 °F 56% 29.93 in 10.0 mi North 8.1 mph - N/A   Partly Cloudy
6:53 PM 78.1 °F - 61.0 °F 56% 29.93 in 10.0 mi ENE 8.1 mph - N/A   Mostly Cloudy
7:53 PM 75.0 °F - 61.0 °F 62% 29.93 in 10.0 mi NE 3.5 mph - N/A   Clear
8:53 PM 71.1 °F - 63.0 °F 75% 29.93 in 10.0 mi NNE 3.5 mph - N/A   Clear
9:53 PM 70.0 °F - 63.0 °F 78% 29.95 in 10.0 mi NE 3.5 mph - N/A   Clear
10:53 PM 68.0 °F - 63.0 °F 84% 29.97 in 10.0 mi NNE 3.5 mph - N/A   Clear
11:53 PM 66.0 °F - 61.0 °F 84% 29.97 in 10.0 mi North 3.5 mph - N/A   Clear